{"data":{"norad_id":61963,"epoch":"2026-09-21T02:17:06.528480Z","epoch_age_seconds":134129,"freshness":"FRESH","line1":"1 61963U 24210E   26264.09521445 -.00001574  00000+0 -47683-4 0  9994","line2":"2 61963  43.0066 156.3653 0002411 262.4742  97.5835 15.27561670104798","mean_motion":15.2756167,"eccentricity":0.0002411,"inclination_deg":43.0066,"raan_deg":156.3653,"arg_perigee_deg":262.4742,"mean_anomaly_deg":97.5835,"bstar":-4.7683e-5,"rev_number":10479,"period_min":94.267879868968,"perigee_km":481.44973800163,"apogee_km":484.75822840373,"semimajor_km":6861.2409832027,"source":"CELESTRAK","updated_at":"2026-09-22T09:00:49.458833Z"}}